Previsão horária em Kabakovo

Hoje, 18 Junho, Sexta-feira

Tempo Temperatura Precipitação Vento Pressão Humidade
00:00 +15°C° 0 mm 5 m/s 751 mmHg 66%
01:00 +13°C° 0 mm 5 m/s 751 mmHg 68%
02:00 +13°C° 0 mm 4 m/s 751 mmHg 72%
03:00 +12°C° 0 mm 4 m/s 752 mmHg 76%
04:00 +11°C° 0 mm 4 m/s 752 mmHg 80%
05:00 +12°C° 0 mm 4 m/s 753 mmHg 77%
06:00 +13°C° 0 mm 5 m/s 753 mmHg 75%
07:00 +14°C° 0 mm 5 m/s 753 mmHg 73%
08:00 +15°C° 0 mm 6 m/s 754 mmHg 68%
09:00 +16°C° 0 mm 6 m/s 754 mmHg 64%
10:00 +17°C° 0 mm 6 m/s 754 mmHg 60%
11:00 +17°C° 0 mm 6 m/s 754 mmHg 56%
12:00 +18°C° 0 mm 7 m/s 755 mmHg 53%
13:00 +18°C° 0 mm 7 m/s 755 mmHg 49%
14:00 +18°C° 0 mm 7 m/s 755 mmHg 51%
15:00 +19°C° 0 mm 6 m/s 756 mmHg 52%
16:00 +19°C° 0 mm 6 m/s 756 mmHg 53%
17:00 +17°C° 0 mm 6 m/s 756 mmHg 56%
18:00 +17°C° 0 mm 5 m/s 756 mmHg 58%
19:00 +16°C° 0 mm 5 m/s 756 mmHg 60%
20:00 +15°C° 0 mm 4 m/s 757 mmHg 63%
21:00 +13°C° 0 mm 3 m/s 757 mmHg 67%
22:00 +13°C° 0 mm 2 m/s 758 mmHg 70%
23:00 +12°C° 0 mm 2 m/s 758 mmHg 70%

Amanhã, 19 Junho, Sábado

Tempo Temperatura Precipitação Vento Pressão Humidade
00:00 +12°C° 0 mm 2 m/s 758 mmHg 71%
01:00 +10°C° 0 mm 2 m/s 758 mmHg 71%
02:00 +11°C° 0 mm 1 m/s 758 mmHg 72%
03:00 +10°C° 0 mm 1 m/s 759 mmHg 74%
04:00 +10°C° 0 mm 1 m/s 759 mmHg 75%
05:00 +12°C° 0 mm 1 m/s 759 mmHg 71%
06:00 +13°C° 0 mm 2 m/s 759 mmHg 68%
07:00 +15°C° 0 mm 2 m/s 759 mmHg 65%
08:00 +16°C° 0 mm 2 m/s 759 mmHg 62%
09:00 +17°C° 0 mm 3 m/s 759 mmHg 60%
10:00 +18°C° 0 mm 3 m/s 759 mmHg 58%
11:00 +20°C° 0 mm 4 m/s 758 mmHg 56%
12:00 +21°C° 0 mm 5 m/s 757 mmHg 54%
13:00 +22°C° 0 mm 5 m/s 757 mmHg 52%
14:00 +22°C° 0 mm 5 m/s 756 mmHg 54%
15:00 +23°C° 0 mm 6 m/s 756 mmHg 56%
16:00 +23°C° 0 mm 6 m/s 755 mmHg 58%
17:00 +23°C° 0 mm 6 m/s 755 mmHg 63%
18:00 +22°C° 0 mm 5 m/s 755 mmHg 68%
19:00 +22°C° 0 mm 5 m/s 754 mmHg 73%
20:00 +21°C° 0 mm 5 m/s 754 mmHg 76%
21:00 +20°C° 0 mm 5 m/s 754 mmHg 79%
22:00 +19°C° 0 mm 5 m/s 754 mmHg 82%
23:00 +19°C° 0 mm 5 m/s 753 mmHg 84%

Depois de amanhã, 20 Junho, Domingo

Tempo Temperatura Precipitação Vento Pressão Humidade
00:00 +17°C° 0 mm 5 m/s 753 mmHg 85%
01:00 +17°C° 0 mm 6 m/s 753 mmHg 86%
02:00 +17°C° 0 mm 5 m/s 753 mmHg 87%
03:00 +17°C° 0 mm 5 m/s 753 mmHg 89%
04:00 +17°C° 0 mm 5 m/s 753 mmHg 90%
05:00 +19°C° 0 mm 4 m/s 753 mmHg 88%
06:00 +20°C° 0 mm 4 m/s 753 mmHg 85%
07:00 +20°C° 0 mm 4 m/s 753 mmHg 83%
08:00 +22°C° 0 mm 5 m/s 753 mmHg 76%
09:00 +25°C° 0 mm 5 m/s 753 mmHg 69%
10:00 +27°C° 0 mm 6 m/s 753 mmHg 63%
11:00 +27°C° 0.1 mm 7 m/s 753 mmHg 60%
12:00 +28°C° 0.1 mm 7 m/s 753 mmHg 57%
13:00 +28°C° 0.1 mm 8 m/s 753 mmHg 54%
14:00 +27°C° 0 mm 8 m/s 753 mmHg 52%
15:00 +27°C° 0 mm 7 m/s 753 mmHg 51%
16:00 +26°C° 0 mm 7 m/s 754 mmHg 50%
17:00 +23°C° 0 mm 6 m/s 754 mmHg 52%
18:00 +22°C° 0 mm 6 m/s 754 mmHg 55%
19:00 +20°C° 0 mm 5 m/s 755 mmHg 58%
20:00 +19°C° 0 mm 4 m/s 755 mmHg 60%
21:00 +17°C° 0 mm 3 m/s 755 mmHg 63%
22:00 +15°C° 0 mm 2 m/s 756 mmHg 66%
23:00 +15°C° 0 mm 2 m/s 756 mmHg 67%

21 Junho, Segunda-feira

Tempo Temperatura Precipitação Vento Pressão Humidade
00:00 +14°C° 0 mm 2 m/s 756 mmHg 67%
01:00 +13°C° 0 mm 1 m/s 756 mmHg 68%
02:00 +13°C° 0 mm 1 m/s 757 mmHg 68%
03:00 +12°C° 0 mm 1 m/s 757 mmHg 68%
04:00 +12°C° 0 mm 1 m/s 757 mmHg 68%
05:00 +13°C° 0 mm 1 m/s 758 mmHg 64%
06:00 +15°C° 0 mm 2 m/s 758 mmHg 60%
07:00 +16°C° 0 mm 2 m/s 758 mmHg 57%
08:00 +17°C° 0 mm 2 m/s 758 mmHg 52%
09:00 +19°C° 0 mm 2 m/s 758 mmHg 47%
10:00 +20°C° 0 mm 2 m/s 758 mmHg 42%
11:00 +21°C° 0 mm 2 m/s 758 mmHg 41%
12:00 +23°C° 0 mm 2 m/s 758 mmHg 40%
13:00 +24°C° 0 mm 2 m/s 758 mmHg 39%
14:00 +24°C° 0 mm 2 m/s 758 mmHg 40%
15:00 +25°C° 0 mm 2 m/s 757 mmHg 41%
16:00 +25°C° 0 mm 2 m/s 757 mmHg 42%
17:00 +25°C° 0 mm 1 m/s 757 mmHg 48%
18:00 +25°C° 0 mm 1 m/s 756 mmHg 55%
19:00 +24°C° 0 mm 1 m/s 756 mmHg 61%
20:00 +23°C° 0 mm 2 m/s 756 mmHg 64%
21:00 +20°C° 0 mm 2 m/s 756 mmHg 67%
22:00 +18°C° 0 mm 2 m/s 756 mmHg 70%
23:00 +18°C° 0.1 mm 3 m/s 755 mmHg 75%

22 Junho, Terça-feira

Tempo Temperatura Precipitação Vento Pressão Humidade
00:00 +17°C° 0.1 mm 3 m/s 755 mmHg 81%
01:00 +17°C° 0.1 mm 3 m/s 755 mmHg 87%
02:00 +17°C° 0.3 mm 3 m/s 754 mmHg 90%
03:00 +17°C° 0.3 mm 3 m/s 754 mmHg 93%
04:00 +17°C° 0.3 mm 3 m/s 754 mmHg 96%
05:00 +18°C° 0.6 mm 3 m/s 754 mmHg 94%
06:00 +20°C° 0.6 mm 3 m/s 754 mmHg 91%
07:00 +21°C° 0.6 mm 3 m/s 754 mmHg 89%
08:00 +24°C° 0.1 mm 3 m/s 754 mmHg 82%
09:00 +25°C° 0.1 mm 4 m/s 754 mmHg 75%
10:00 +27°C° 0.1 mm 5 m/s 754 mmHg 68%
11:00 +28°C° 0 mm 5 m/s 753 mmHg 63%
12:00 +30°C° 0 mm 6 m/s 753 mmHg 58%
13:00 +32°C° 0 mm 6 m/s 753 mmHg 53%
14:00 +32°C° 0 mm 6 m/s 753 mmHg 54%
15:00 +32°C° 0 mm 7 m/s 753 mmHg 55%
16:00 +32°C° 0 mm 7 m/s 752 mmHg 55%
17:00 +29°C° 0.4 mm 6 m/s 752 mmHg 63%
18:00 +27°C° 0.4 mm 5 m/s 752 mmHg 70%
19:00 +26°C° 0.4 mm 4 m/s 752 mmHg 78%
20:00 +23°C° 0.2 mm 4 m/s 752 mmHg 80%
21:00 +22°C° 0.2 mm 3 m/s 753 mmHg 82%
22:00 +21°C° 0.2 mm 3 m/s 753 mmHg 84%
23:00 +20°C° 0 mm 3 m/s 753 mmHg 84%

23 Junho, Quarta-feira

Tempo Temperatura Precipitação Vento Pressão Humidade
00:00 +19°C° 0 mm 3 m/s 754 mmHg 85%
01:00 +17°C° 0 mm 3 m/s 754 mmHg 85%
02:00 +16°C° 0 mm 3 m/s 754 mmHg 88%
03:00 +16°C° 0 mm 3 m/s 754 mmHg 91%
04:00 +14°C° 0 mm 3 m/s 755 mmHg 94%
05:00 +14°C° 0 mm 4 m/s 755 mmHg 90%
06:00 +15°C° 0 mm 4 m/s 756 mmHg 87%
07:00 +16°C° 0 mm 5 m/s 756 mmHg 83%
08:00 +17°C° 0 mm 5 m/s 756 mmHg 74%
09:00 +19°C° 0 mm 6 m/s 757 mmHg 65%
10:00 +20°C° 0 mm 6 m/s 757 mmHg 56%
11:00 +21°C° 0 mm 6 m/s 757 mmHg 51%
12:00 +22°C° 0 mm 6 m/s 757 mmHg 46%
13:00 +23°C° 0 mm 5 m/s 757 mmHg 41%
14:00 +23°C° 0 mm 5 m/s 757 mmHg 41%
15:00 +23°C° 0 mm 5 m/s 757 mmHg 41%
16:00 +23°C° 0 mm 5 m/s 757 mmHg 41%
17:00 +22°C° 0 mm 5 m/s 757 mmHg 46%
18:00 +21°C° 0 mm 4 m/s 757 mmHg 51%
19:00 +20°C° 0 mm 4 m/s 757 mmHg 56%
20:00 +19°C° 0 mm 3 m/s 757 mmHg 56%
21:00 +17°C° 0 mm 3 m/s 758 mmHg 57%
22:00 +15°C° 0 mm 2 m/s 758 mmHg 57%
23:00 +15°C° 0 mm 2 m/s 758 mmHg 59%
Mostrar mais

Necessitamos do seu Consentimento

A Meteoprog e os seus Fornecedores de Serviços podem armazenar e aceder a dados pessoais como cookies, identificadores do dispositivo ou outras tecnologias semelhantes existentes no seu dispositivo e processar estes dados para personalizar conteúdos e anúncios, assim como funcionalidades nas redes sociais e análise de tráfego.

  • Armazenar e/ou aceder a informações no seu dispositivo

    Os cookies, identificadores do dispositivo ou outras informações podem ser armazenados ou acedidos no seu dispositivo, para os fins acima indicados.

  • Anúncios e conteúdos personalizados, medição de anúncios e conteúdos, dados sobre o público-alvo e desenvolvimento de produtos

    Os anúncios e os conteúdos podem ser personalizados com base num perfil. Podem ser adicionados dados adicionais para uma maior personalização dos anúncios e dos conteúdos. A eficácia dos anúncios e dos conteúdos pode ser medida. Podem ser obtidas informações sobre o público que visualizou os anúncios e os conteúdos. Estes dados podem ser usados para desenvolver ou melhorar sistemas, softwares ou a experiência do utilizador.

Ao clicar em "Eu concordo”, permitirá o uso de cookies, identificadores do dispositivo e web beacons mencionados ou outras tecnologias semelhantes. As configurações do navegador do seu dispositivo podem ser alteradas.

Para certos fins, podem ser invocados interesses legítimos ao invés de consentimento. Pode ler mais informação sobre este assunto na nossa Política de Privacidade e Cookies.